Cocoa Beach, FL (32931)

6:30 PM EST on February 06, 2016 (GMT -0500)
The Weather Reporter | | Change Station
CLOSE
Current Station
Personal Weather Station
Location: Merritt Island, FL
Elevation: 13 ft
Nearby Weather Stations

Elev 13 ft 28.36 °N, 80.66 °W | Updated 13 minutes ago

Clear
Clear
63.1 °F
Feels Like 63.1 °F
N
0.0
Wind Variable Wind from North

Today
High -- | Low -- °F
--% Chance of Precip.
Yesterday
High -- | Low -- °F
Precip. -- in
Pressure 30.02 in
Visibility 10.0 miles
Clouds Few 6000 ft
Mostly Cloudy 8000 ft
Dew Point 62 °F
Humidity 95%
Rainfall 0.09 in
Snow Depth Not available.
7:07 AM 6:05 PM
Waning Crescent, 4% visible
SPECI KCOF 062303Z AUTO 36008KT 10SM -DZ FEW060 BKN080 17/17 A3002 RMK AO2 DZB03
Pressure 30.02 in
Visibility 10.0 miles
Clouds Few 6000 ft
Mostly Cloudy 8000 ft
Dew Point 62 °F
Humidity 95%
Rainfall 0.09 in
Snow Depth Not available.
7:07 AM 6:05 PM
Waning Crescent, 4% visible
SPECI KCOF 062303Z AUTO 36008KT 10SM -DZ FEW060 BKN080 17/17 A3002 RMK AO2 DZB03

10-Day Weather Forecast

Almanac

Astronomy

Feb. 06, 2016 Rise Set
Actual Time
Civil Twilight
Nautical Twilight
Astronomical Twilight
Moon
Length of Visible Light
Length of Day
Tomorrow will be .
, % of the Moon is Illuminated

Today's Extremes

State Highs State Lows

Community

WunderPhotos

Upload Photos

1,891,094 photos uploaded!

WunderBlog® & News

Nearby

Air Quality

  Air Quality AQ Index Pollutant
Not available.

Snow Depth

Station Depth Elevation

Earthquake Activity

City Distance Mag. Time & Date
Minimum magnitude displayed is 2.5.

Coastal Water Temperatures

Place Temperature

Stations

Nearby Weather Stations

Station Location Temp. Windchill Dew Point Humidity Wind Precip. Elev Updated Type
                   

Watches & Warnings

There are currently no watches in effect.